Torna al catalogo

HJ-1A

AttivoScienzaSSO
NORAD 33320·PAYLOAD·🇨🇳 China

Lanciato Sep 6, 2008 da Taiyuan Satellite Launch Center

Loading…

Prossimi Passaggi (prossime 24 ore)

TLE

AggiornatoSource: Space-Track

Epoca: Sep 14, 2026, 15:17 UTC

1 33320U 08041A   26257.63692100  .00000320  00000-0  44423-4 0  9999
2 33320  97.6779 240.0704 0018085 200.8350 159.2130 14.84157684971674

Traccia HJ-1A in tempo reale con AllMySat

Download on the App Store